Regional Weather Roundup
Issued by NWS Wakefield, VA

Home | Current Version | Previous Version | Text Only | Print | Product List | Glossary On
Versions: 1 2 3 4 5 6 7 8 9 10 11 12 13 14 15 16 17 18 19 20 21 22 23 24 25 26 27 28
000
ASUS41 KAKQ 261415
RWRAKQ

REGIONAL WEATHER ROUNDUP
NATIONAL WEATHER SERVICE WAKEFIELD VA
1000 AM EDT WED APR 26 2017

Note: "fair" indicates few or no clouds below 12,000 feet with no
significant weather and/or obstructions to visibility. * = Denotes
station may not report precipitation (e.g., rain,snow,etc.),
thunder or fog.

VAZ042-051-052>054-056-261500-
NORTHERN VIRGINIA

CITY           SKY/WX    TMP DP  RH WIND       PRES   REMARKS
WASH NATIONAL  CLOUDY    60  57  89 NW9       29.79R
DULLES         CLOUDY    60  56  86 NW9       29.79R
FORT BELVOIR   CLOUDY    63  55  77 NW8       29.79R
QUANTICO       CLOUDY    63  58  83 N8        29.79R
FREDERICKSBRG* CLOUDY    64  59  86 NW6       29.78S
STAFFORD*      CLOUDY    62  58  88 NW12      29.83R
WARRENTON      CLOUDY    64  55  70 NW5       29.79R
CULPEPER*      CLOUDY    64  58  79 NE6       29.80R
MANASSAS*        N/A     62  57  83 N9        29.80R
LEESBURG*      CLOUDY    61  59  94 N7        29.80R
WINCHESTER     CLOUDY    59  55  88 NW9       29.80S
FRONT ROYAL*   CLOUDY    59  55  88 CALM      29.80S
LURAY*         MOSUNNY   59  55  88 CALM      29.81S
$$

VAZ048-049-060>072-079>083-261500-
CENTRAL AND SOUTH CENTRAL VIRGINIA

CITY           SKY/WX    TMP DP  RH WIND       PRES   REMARKS
RICHMOND       CLOUDY    61  58  90 N8        29.80R
CHESTERFIELD*  CLOUDY    64  45  48 N10       29.82R
PETERSBURG*    CLOUDY    63  56  78 N6        29.81R
HANOVER        CLOUDY    61  56  83 VRB3      29.82R
TAPPAHANNOCK*  CLOUDY    61  61 100 W7        29.79S
QUINTON*       CLOUDY    59  59 100 NW6       29.80R FOG
CHARLOTTSVILLE SUNNY     65  55  70 CALM      29.79R
GORDONSVILLE*  SUNNY     64  57  80 S3        29.79S
ORANGE*        SUNNY     63  55  77 CALM      29.80R
LOUISA*        MOSUNNY   64  59  82 CALM      29.79R
BUMPASS*       PTSUNNY   62  58  87 NW5       29.80R
FARMVILLE*     SUNNY     66  56  70 CALM      29.80R
CREWE*         FAIR      66  58  74 NW5       29.81S
FORT PICKETT*  FAIR      65  55  69 W8        29.81R
CHASE CITY*    FAIR      65  57  76 SW5       29.82R
CLARKSVILLE*   FAIR      64  59  82 CALM      29.82R
SOUTH HILL*    MOSUNNY   64  57  78 W3        29.88R
LAWRENCEVILLE* PTSUNNY   64  55  73 NW7       29.82R
EMPORIA*       CLOUDY    63  55  77 W5        29.83R
$$

VAZ088>098-261500-
SOUTHEAST VIRGINIA

CITY           SKY/WX    TMP DP  RH WIND       PRES   REMARKS
NORFOLK        CLOUDY    64  58  80 W8        29.78R
VIRGINIA BEACH PTSUNNY   63  58  83 W8        29.77R
NORFOLK NAVAL  PTSUNNY   64  57  78 W8        29.80R
WEST POINT*    CLOUDY    60  58  94 W6        29.80R
SALUDA*        CLOUDY    61  59  94 W7        29.77R
NEWPORT NEWS   CLOUDY    64  59  83 W8        29.78R
LANGLEY AFB    CLOUDY    63  60  90 VRB5      29.78R
FORT EUSTIS    CLOUDY    64  59  84 NW12      29.77R
WILLIAMSBURG*  MOSUNNY   63  63 100 CALM      29.80R
HR EXEC AP*    CLOUDY    63  59  88 NW6       29.77S
FRANKLIN*      CLOUDY    63  59  86 NW5       29.81R
US460-WAKEFLD  CLOUDY    61  59  93 NW8       29.80R
$$

VAZ020-022-025-037-045-261500-
WEST CENTRAL AND SOUTHWEST VIRGINIA

CITY           SKY/WX    TMP DP  RH WIND       PRES   REMARKS
STAUNTON*      PTSUNNY   57  53  85 E3        29.84R
WAYNESBORO*    SUNNY     59  56  89 CALM      29.82S
HOT SPRINGS VA CLOUDY    55  52  88 W10       29.88R
LYNCHBURG      SUNNY     64  57  78 SW7       29.83R
DANVILLE       SUNNY     66  61  84 W9        29.83R
SOUTH BOSTON*  FAIR      67  59  76 W3        29.82S
MARTINSVILLE   SUNNY     68  58  71 W8        29.86S
ROANOKE        MOSUNNY   65  58  78 SW9       29.85R
BLACKSBURG     SUNNY     62  56  82 W5        29.89S
DUBLIN*        SUNNY     66  55  66 W5        29.88S
MARION*        MOSUNNY   61  58  88 SW10G17   29.91S
HILLSVILLE*    CLOUDY    55  55 100 CALM      29.88R FOG
RICHLANDS*     FAIR      61  56  83 CALM      29.90S
WISE*          SUNNY     64  54  68 SW8       29.90S
ABINGDON*      SUNNY     62  61  96 W6        29.89F
$$

MDZ021>025-VAZ099-100-261500-
SOUTHERN MARYLAND AND THE DELMARVA PENINSULA

CITY           SKY/WX    TMP DP  RH WIND       PRES   REMARKS
PATUXENT RIVER CLOUDY    59  59 100 NW10      29.76R
BAY BRIDGE APT DRIZZLE   57  57 100 NW8       29.77R FOG
LEONARDTOWN    CLOUDY    59  55  88 W5        29.78R
DOVER          CLOUDY    58  58 100 N7        29.73R FOG
GEORGETOWN     CLOUDY   N/A N/A N/A NE3       29.74R FOG
EASTON         FOG       59  57  94 N5        29.79R VSB 1
CAMBRIDGE      CLOUDY    59  57  94 NW9       29.76R FOG
SALISBURY      LGT RAIN  59  59 100 W7        29.73R FOG
OCEAN CITY     CLOUDY    58  56  93 NW9       29.73R
WALLOPS ISLAND CLOUDY    58  58 100 W9G22     29.74R
ACCOMACK*      CLOUDY    59  55  86 W10       29.76R
$$

NCZ012>017-030>032-261500-
NORTH CENTRAL AND EASTERN NORTH CAROLINA

CITY           SKY/WX    TMP DP  RH WIND       PRES   REMARKS
ROANOKE RAPIDS PTSUNNY   64  57  77 W7        29.83R
RALEIGH        PTSUNNY   67  58  72 W9        29.84R
ELIZABETH CITY CLOUDY    63  60  90 W9        29.80R
AHOSKIE*         N/A     62  57  82 W3        29.82R
EDENTON*       NOT AVBL
CURRITUCK*     CLOUDY    63  63 100 W8        29.80S
KILL DEVIL HLS CLOUDY    63  63 100 W5        29.79R
MANTEO         CLOUDY    62  61  96 NW6       29.81R FOG
CAPE HATTERAS  CLOUDY    68  60  75 W8G17     29.81S
TARBORO*       NOT AVBL
GOLDSBORO      SUNNY     67  62  85 W5        29.82R
WASHINGTON     CLOUDY    63  58  83 NW5       29.82R
GREENVILLE     PTSUNNY   64  57  77 W7        29.86R
NEW BERN       PTSUNNY   67  60  78 W7        29.83R
WILMINGTON     CLOUDY    68  60  75 W8        29.85R
$$

VAZ048-261500-
ELSEWHERE

CITY           SKY/WX    TMP DP  RH WIND       PRES   REMARKS
HARRISBURG PA  CLOUDY    57  56  96 CALM      29.77S
BALTIMORE      DRIZZLE   58  58 100 VRB3      29.76S FOG
ANNAPOLIS      CLOUDY    60  57  89 NW6       29.77R FOG
ANDREWS AFB    CLOUDY    59  56  89 NW8       29.77R
PHILADELPHIA   CLOUDY    58  56  93 NE10      29.75S
HENDERSON NC   SUNNY     64  55  73 SW3       29.83R
GREENSBORO     CLOUDY    63  58  83 W8        29.85R
ROCKY MOUNT    MOSUNNY   66  59  78 W5        29.83R
$$

VAZ100-261500-
MARINE

STATION/POSITION TIME  TEMP    WIND        PRES    WAVE   SWELL
                       AIR SEA DIR/SP/G            HT/PER HT/PER
                 (UTC) (F)     (DEG/KT/KT) (MB)    (FT/S) (FT/S)
CAPE MAY NJ      1348   58 55   40/  5/  6 1006.2R
LEWES DE         1342   55 55   70/  7/  8 1006.4R
15NM E FENWICK I 1350   52 51   10/  6/  8 1006.6R   7/10   7/10
OCEAN-CITY-INLET 1342   55 53   10/  6/  7 1006.6R
WACHAPREAGUE VA  1342   59 59  240/  4/ 14 1006.9R
THOMAS POINT MD  1400   57 56  340/  8/  9   N/A
GOOSES REEF MD   1400   57 53  320/  8/ 10 1008.7
COVE POINT MD    1342   57     340/ 11/ 13 1008.2R
SOLOMONS ISLAND  1342   59 60  320/  5/ 11   N/A
BISHOPS HEAD MD  1342   58 60  310/ 10/ 12 1007.7R
PINEY POINT MD   1348          320/ 13/ 14   N/A
POTOMAC MD       1400   59 60  310/ 14/ 16 1007.2    1/ 2
CAMBRIDGE MD     1342   58 61                N/A
LEWISETTA VA     1342   59 61  320/ 10/ 13 1007.7R
RAPPAHANNOCK LGT 1348          300/ 11/ 12 1008.4R
STINGRAY PT      1400   60 62  320/ 12/ 16 1008.2    1/ 2
YORK RVR RNG VA  1342   61     300/  9/ 10 1007.5R
YORKTOWN VA      1342   61 63  280/  8/  9 1007.9R
JAMESTOWN VA     1400   62 66  300/ 10/ 12   N/A     0
DOMINION TERM VA 1342   62     300/  9/ 10 1008.3R
KIPTOPEKE VA     1348      60  310/ 10/ 12   N/A
CHES BAY BRIDGE  1342   60 61  300/  9/ 10 1008.1R
CAPE HENRY VA    1342   60     280/  9/ 12   N/A
WILLOUBY STN VA  1342   62     280/ 10/ 12 1009.2R
S CRANEY ISL VA  1342   62     260/  6/  8 1008.3R
CAPE HENRY BUOY  1342      56                N/A     4/ 9   2/11
1ST LANDING BUOY 1400   61 61              1008.6    3/ 5
CAPE CHARLES BUO 1351      56                N/A     4/10   2/11
64NM E OF VA BCH 1350   56 54  270/  8/ 10 1008.6R   7/10   7/10
DUCK PIER NC     1342   62 59  270/ 10/ 13 1008.3R
44100 DUCK FRF   1335      56                N/A     5/11   2/11
44056 DUCK FRF   1330      60                N/A     4/ 9   2/11
OREGON INLET NC  1342   63 64  250/  8/ 12 1008.7R
HATTERAS NC      1342   66 68  250/ 10/ 13 1009.1R
DIAMOND SHLS NC  1350   67 77  270/ 12/ 16 1009.3R   7/ 9   7/ 9
CAPE LOOKOUT NC  1400   65     290/ 11/ 13 1009.9R
$$




USA.gov is the U.S. government's official web portal to all federal, state and local government web resources and services.